Location: Alma
(38.7220°N, 88.9090°W)
Time: 10:54:33
(UTC-06:00)

Vanguard 2 - All Passes

Search period start: 12 November 2019 00:00
Search period end: 22 November 2019 00:00
Orbit: 554 x 2937 km, 32.9° (Epoch: 12 November)

Date Brightness Start Highest point End Pass type
(mag) Time Alt. Az. Time Alt. Az. Time Alt. Az.
12 Nov - 08:38:21 10° SSW 08:42:34 15° SSE 08:45:57 10° SE daylight
12 Nov - 10:45:53 10° SW 10:51:01 31° S 10:54:51 10° ESE daylight
12 Nov - 12:54:49 10° WSW 12:58:52 37° S 13:02:33 10° ESE daylight
12 Nov - 15:03:35 10° WSW 15:06:33 20° SSW 15:09:53 10° SSE daylight
13 Nov - 08:54:51 10° SSW 09:00:33 22° SSE 09:04:44 10° ESE daylight
13 Nov - 11:03:35 10° WSW 11:08:54 37° S 11:12:49 10° ESE daylight
13 Nov - 13:12:47 10° WSW 13:16:42 34° S 13:20:19 10° ESE daylight
13 Nov - 15:22:11 10° SW 15:24:22 14° SSW 15:26:45 10° SSE daylight
14 Nov - 07:05:47 10° S 07:09:26 13° SSE 07:12:33 10° SE daylight
14 Nov - 09:11:56 10° SW 09:18:30 28° SSE 09:23:02 10° ESE daylight
14 Nov - 11:21:25 10° WSW 11:26:46 41° S 11:30:43 10° ESE daylight
14 Nov - 13:30:50 10° WSW 13:34:30 28° SSW 13:37:57 10° SE daylight
15 Nov - 07:21:06 10° SSW 07:27:27 18° SSE 07:32:16 10° ESE daylight
15 Nov - 09:29:23 10° SW 09:36:26 35° S 09:41:09 10° ESE daylight
15 Nov - 11:39:21 10° WSW 11:44:38 42° S 11:48:33 10° ESE daylight
15 Nov - 13:49:00 10° WSW 13:52:16 22° SSW 13:55:23 10° SSE daylight
16 Nov - 07:37:34 10° SSW 07:45:29 25° SSE 07:50:58 10° ESE daylight
16 Nov - 09:47:05 10° WSW 09:54:22 41° S 09:59:07 10° ESE daylight
16 Nov - 11:57:22 10° WSW 12:02:28 40° S 12:06:20 10° ESE daylight
16 Nov - 14:07:28 10° WSW 14:09:59 16° SSW 14:12:27 10° SSE daylight
17 Nov - 05:47:59 10° S 05:53:49 15° SSE 05:58:35 10° ESE visible
17 Nov - 07:54:35 10° SW 08:03:28 32° SSE 08:09:18 10° ESE daylight
17 Nov - 10:04:57 10° WSW 10:12:16 47° S 10:17:01 10° ESE daylight
17 Nov - 12:15:26 10° W 12:20:16 35° SSW 12:24:01 10° SE daylight
17 Nov - 14:27:07 10° SW 14:27:40 10° SSW 14:28:14 10° SSW daylight
18 Nov - 06:03:20 10° SSW 06:11:51 21° SSE 06:18:10 10° ESE visible
18 Nov - 08:11:59 10° SW 08:21:27 39° SSE 08:27:25 10° E daylight
18 Nov - 10:22:55 10° WSW 10:30:10 49° S 10:34:52 10° ESE daylight
18 Nov - 12:33:34 10° W 12:38:00 28° SSW 12:41:33 10° SE daylight
19 Nov - 06:19:40 10° SSW 06:29:52 27° SSE 06:36:56 10° ESE daylight
19 Nov - 08:29:38 10° WSW 08:39:24 46° S 08:45:25 10° E daylight
19 Nov - 10:40:58 10° W 10:48:02 48° S 10:52:39 10° ESE daylight
19 Nov - 12:51:52 10° WSW 12:55:41 21° SSW 12:58:52 10° SSE daylight
20 Nov - 04:30:15 10° S 04:37:38 16° SSE 04:43:46 10° ESE visible
20 Nov - 06:36:34 10° SW 06:47:53 34° SSE 06:55:18 10° E daylight
20 Nov - 08:47:29 10° WSW 08:57:21 52° S 09:03:19 10° E daylight
20 Nov - 10:59:04 10° W 11:05:52 45° SSW 11:10:23 10° ESE daylight
20 Nov - 13:10:31 10° WSW 13:13:17 15° SSW 13:15:44 10° S daylight
21 Nov - 04:45:22 10° SSW 04:55:39 22° SSE 05:03:30 10° ESE visible
21 Nov - 06:53:50 10° SW 07:05:53 42° SSE 07:13:27 10° E daylight
21 Nov - 09:05:29 10° WSW 09:15:17 55° S 09:21:11 10° ESE daylight
21 Nov - 11:17:12 10° W 11:23:38 38° SSW 11:28:01 10° SE daylight
